Vitoria, Spain

9:47 AM CEST on March 28, 2017 (GMT +0200)
Vitoria

Weather History for LEVT - September, 2012

Change the Weather History Date:

Thursday, September 20, 2012

  Actual Average Record
Temperature  
Mean Temperature 60 °F -  
Max Temperature 82 °F 68 °F 86 °F (2003)
Min Temperature 39 °F 46 °F 33 °F (2005)
Degree Days  
Heating Degree Days 4    
Growing Degree Days 10 (Base 50)    
Moisture  
Dew Point 47 °F    
Average Humidity 69    
Maximum Humidity 100    
Minimum Humidity 32    
Precipitation  
Precipitation 0.00 in - - ()
Sea Level Pressure  
Sea Level Pressure 30.06 in    
Wind  
Wind Speed 2 mph ()    
Max Wind Speed 8 mph    
Max Gust Speed -    
Visibility 4.6 miles    
Events Fog    
Averages and records for this station are not official NWS values.
T = Trace of Precipitation, MM = Missing Value Source: Averaged Metar Reports

Daily Weather History Graph

Daily Weather History Graph

Search for Another Location

Airport or City:

Trip Planner

Search our weather history database for the weather conditions in past years. The results will help you decide how hot, cold, wet, or windy it might be!

Date:

Astronomy

Sep. 20, 2012 Rise Set
Actual Time 7:56 AM CEST 8:11 PM CEST
Civil Twilight 7:28 AM CEST 8:39 PM CEST
Nautical Twilight 6:54 AM CEST 9:12 PM CEST
Astronomical Twilight 6:20 AM CEST 9:46 PM CEST
Moon 1:06 PM CEST (9/20) 10:51 PM CEST (9/20)
Length of Visible Light 13h 11m
Length of Day
12h 15m
Waxing Crescent, 24% of the Moon is Illuminated
Sep 20
Waxing Crescent
Sep 22
First Quarter
Sep 30
Full
Oct 8
Last Quarter
Oct 15
New

Hourly Weather History & Observations

Time (CEST) Temp. Dew Point Humidity Pressure Visibility Wind Dir Wind Speed Gust Speed Precip Events Conditions
12:00 AM 44.6 °F 42.8 °F 93% 30.18 in - Calm Calm - N/A   Clear
12:30 AM 44.6 °F 42.8 °F 93% 30.18 in - South 1.2 mph - N/A   Clear
1:00 AM 44.6 °F 44.6 °F 100% 30.18 in - Calm Calm - N/A   Clear
1:30 AM 44.6 °F 42.8 °F 93% 30.18 in - Calm Calm - N/A   Clear
2:00 AM 42.8 °F 41.0 °F 93% 30.15 in - Calm Calm - N/A   Clear
2:30 AM 41.0 °F 41.0 °F 100% 30.15 in - Calm Calm - N/A   Clear
3:00 AM 41.0 °F 41.0 °F 100% 30.15 in - Calm Calm - N/A   Clear
3:30 AM 39.2 °F 39.2 °F 100% 30.12 in - Calm Calm - N/A   Clear
4:00 AM 41.0 °F 39.2 °F 93% 30.12 in - Calm Calm - N/A   Clear
5:00 AM 39.2 °F 39.2 °F 100% 30.12 in 6.2 mi Calm Calm - N/A Fog Patches of Fog
5:30 AM 39.2 °F 39.2 °F 100% 30.09 in 6.2 mi Calm Calm - N/A Fog Patches of Fog
6:30 AM 39.2 °F 39.2 °F 100% 30.09 in 0.6 mi NNE 1.2 mph - N/A Fog Patches of Fog
7:00 AM 39.2 °F 39.2 °F 100% 30.09 in 0.6 mi Calm Calm - N/A Fog Patches of Fog
7:30 AM 39.2 °F 39.2 °F 100% 30.09 in 0.4 mi Calm Calm - N/A Fog Patches of Fog
8:00 AM 41.0 °F 39.2 °F 93% 30.09 in 0.5 mi Calm Calm - N/A Fog Patches of Fog
8:30 AM 41.0 °F 41.0 °F 100% 30.09 in 0.6 mi Calm Calm - N/A Fog Patches of Fog
9:00 AM 44.6 °F 44.6 °F 100% 30.09 in 6.2 mi Calm Calm - N/A Fog Patches of Fog
9:30 AM 46.4 °F 46.4 °F 100% 30.09 in 6.2 mi Calm Calm - N/A   Unknown
10:00 AM 48.2 °F 48.2 °F 100% 30.09 in - Calm Calm - N/A   Clear
10:30 AM 53.6 °F 50.0 °F 88% 30.09 in - Calm Calm - N/A   Clear
11:00 AM 59.0 °F 50.0 °F 72% 30.09 in - Variable 2.3 mph - N/A   Clear
11:30 AM 60.8 °F 48.2 °F 63% 30.09 in - WSW 5.8 mph - N/A   Clear
12:00 PM 62.6 °F 48.2 °F 59% 30.09 in - SW 4.6 mph - N/A   Clear
12:30 PM 66.2 °F 48.2 °F 52% 30.09 in - SW 4.6 mph - N/A   Clear
1:00 PM 68.0 °F 50.0 °F 52% 30.06 in - WSW 5.8 mph - N/A   Clear
2:00 PM 73.4 °F 50.0 °F 44% 30.06 in - WSW 8.1 mph - N/A   Clear
2:30 PM 75.2 °F 50.0 °F 41% 30.04 in - WSW 8.1 mph - N/A   Clear
3:00 PM 77.0 °F 48.2 °F 36% 30.04 in - SW 5.8 mph - N/A   Clear
3:30 PM 80.6 °F 50.0 °F 34% 30.01 in - WSW 6.9 mph - N/A   Clear
4:00 PM 80.6 °F 50.0 °F 34% 30.01 in - SW 4.6 mph - N/A   Clear
4:30 PM 82.4 °F 50.0 °F 32% 29.98 in - SW 5.8 mph - N/A   Clear
5:00 PM 82.4 °F 50.0 °F 32% 29.98 in - SSE 6.9 mph - N/A   Clear
5:30 PM 82.4 °F 50.0 °F 32% 29.98 in - South 8.1 mph - N/A   Clear
6:00 PM 80.6 °F 50.0 °F 34% 29.98 in - South 8.1 mph - N/A   Clear
6:30 PM 80.6 °F 50.0 °F 34% 29.98 in - SSE 6.9 mph - N/A   Clear
7:00 PM 78.8 °F 51.8 °F 39% 29.98 in - South 6.9 mph - N/A   Clear
7:30 PM 78.8 °F 51.8 °F 39% 29.98 in 6.2 mi SSW 5.8 mph - N/A   Partly Cloudy
8:00 PM 75.2 °F 51.8 °F 44% 29.98 in 6.2 mi South 3.5 mph - N/A   Partly Cloudy
8:30 PM 73.4 °F 51.8 °F 47% 29.98 in 6.2 mi Variable 2.3 mph - N/A   Partly Cloudy
9:00 PM 71.6 °F 51.8 °F 50% 29.98 in 6.2 mi Calm Calm - N/A   Partly Cloudy
9:30 PM 69.8 °F 51.8 °F 53% 30.01 in 6.2 mi Calm Calm - N/A   Partly Cloudy
10:00 PM 66.2 °F 51.8 °F 60% 30.01 in 6.2 mi Calm Calm - N/A   Partly Cloudy
10:30 PM 66.2 °F 51.8 °F 60% 30.01 in 6.2 mi North 2.3 mph - N/A   Partly Cloudy
11:00 PM 69.8 °F 53.6 °F 56% 30.01 in 6.2 mi NNE 4.6 mph - N/A   Partly Cloudy
11:30 PM 66.2 °F 53.6 °F 64% 30.01 in 6.2 mi Variable 1.2 mph - N/A   Partly Cloudy